カタログに戻る

COSMOS 375 DEB

運用中LEO
NORAD 4635·DEBRIS·🇷🇺 Russia

打ち上げ Oct 30, 1970 から Baikonur Cosmodrome

Loading…

次のパス (今後24時間)

TLE

最新Source: Space-Track

元期: Sep 14, 2026, 14:14 UTC

1 04635U 70091M   26257.59333056 -.00000356  00000-0 -10832-3 0  9994
2 04635  62.8265 267.1376 0881100 229.9501 122.0959 13.05322060653393

AllMySatでCOSMOS 375 DEBをリアルタイム追跡

Download on the App Store